Location: Madrid
(40.4167°N, 3.7036°W)
Time: 10:59:48
(UTC+00:00)

ISS - Pass Details

Date: 05 May 2025
Orbit: 416 x 419 km, 51.6° (Epoch: 14 May)

Event Time Altitude Azimuth Distance (km) Brightness Sun altitude
Rises 03:21:38 0° 312° (NW) 2,361 0.0 -18.1°
Reaches altitude 10° 03:24:15 10° 333° (NNW) 1,496 -0.8 -17.8°
Maximum altitude 03:26:35 17° 17° (NNE) 1,123 -0.8 -17.4°
Drops below altitude 10° 03:28:56 10° 62° (ENE) 1,494 0.3 -17.1°
Sets 03:31:31 0° 83° (E) 2,356 1.1 -16.7°
